Location: Newark
(21.8258°S, 114.1586°E)
Time: 01:29:46
(UTC+00:00)

Hubble Space Telescope - Pass Details

Date: 20 December 2019
Orbit: 536 x 540 km, 28.5° (Epoch: 23 January)

Event Time Altitude Azimuth Distance (km) Brightness Sun altitude
Rises 11:25:36 0° 249° (WSW) 2,686 6.9 -5.2°
Reaches altitude 10° 11:27:53 10° 246° (WSW) 1,793 5.3 -5.6°
Maximum altitude 11:32:01 67° 163° (SSE) 583 1.0 -6.5°
Drops below altitude 10° 11:36:08 10° 79° (E) 1,786 2.8 -7.3°
Enters shadow 11:36:31 - 79° (ENE) 1,934 3.0 -7.4°
